| time (UTC) | temp F | wind direction | speed MPH | gust MPH | rain 1hr in | rain 24hr in | rain mn in | humidity % | barometer mb |
| 20260506230635 | 76 | 208 | 6.0 | 8.0 | 0.00 | 0.00 | 0.00 | 77 | 1012.9 |
| 20260506230132 | 76 | 143 | 3.0 | 5.0 | 0.00 | 0.00 | 0.00 | 77 | 1013.1 |
| 20260506225629 | 76 | 234 | 3.0 | 6.0 | 0.00 | 0.00 | 0.00 | 77 | 1013.0 |
| 20260506225125 | 76 | 210 | 4.0 | 9.0 | 0.00 | 0.00 | 0.00 | 76 | 1012.9 |
| 20260506224622 | 76 | 189 | 6.0 | 9.0 | 0.00 | 0.00 | 0.00 | 76 | 1012.9 |
| 20260506224118 | 76 | 190 | 9.0 | 11.0 | 0.00 | 0.00 | 0.00 | 76 | 1013.1 |
| 20260506223615 | 76 | 204 | 3.0 | 8.0 | 0.00 | 0.00 | 0.00 | 76 | 1012.9 |
| 20260506223111 | 76 | 243 | 6.0 | 13.0 | 0.00 | 0.00 | 0.00 | 75 | 1012.7 |
| 20260506222608 | 77 | 147 | 13.0 | 20.0 | 0.00 | 0.00 | 0.00 | 75 | 1012.5 |
| 20260506222104 | 77 | 201 | 9.0 | 14.0 | 0.00 | 0.00 | 0.00 | 75 | 1012.7 |
| 20260506221602 | 77 | 161 | 6.0 | 15.0 | 0.00 | 0.00 | 0.00 | 75 | 1012.5 |
| 20260506221100 | 77 | 212 | 6.0 | 18.0 | 0.00 | 0.00 | 0.00 | 74 | 1012.6 |
| 20260506220556 | 77 | 203 | 11.0 | 20.0 | 0.00 | 0.00 | 0.00 | 74 | 1012.6 |
| 20260506220051 | 77 | 221 | 6.0 | 13.0 | 0.00 | 0.00 | 0.00 | 74 | 1012.5 |
| 20260506215548 | 77 | 214 | 10.0 | 14.0 | 0.00 | 0.00 | 0.00 | 74 | 1012.7 |
| 20260506215044 | 77 | 227 | 7.0 | 15.0 | 0.00 | 0.00 | 0.00 | 74 | 1012.6 |
| 20260506214541 | 77 | 223 | 19.0 | 23.0 | 0.00 | 0.00 | 0.00 | 74 | 1012.6 |
| 20260506214038 | 77 | 233 | 5.0 | 13.0 | 0.00 | 0.00 | 0.00 | 74 | 1012.8 |
| 20260506213536 | 78 | 224 | 9.0 | 25.0 | 0.00 | 0.00 | 0.00 | 74 | 1012.7 |
| 20260506213033 | 78 | 204 | 6.0 | 14.0 | 0.00 | 0.00 | 0.00 | 74 | 1012.8 |
| 20260506212530 | 78 | 183 | 11.0 | 16.0 | 0.00 | 0.00 | 0.00 | 73 | 1012.7 |
| 20260506212025 | 78 | 202 | 7.0 | 11.0 | 0.00 | 0.00 | 0.00 | 73 | 1012.9 |
| 20260506211521 | 78 | 229 | 9.0 | 18.0 | 0.00 | 0.00 | 0.00 | 73 | 1012.9 |
| 20260506211018 | 78 | 227 | 9.0 | 17.0 | 0.00 | 0.00 | 0.00 | 72 | 1012.8 |
| 20260506210515 | 78 | 220 | 9.0 | 15.0 | 0.00 | 0.00 | 0.00 | 71 | 1012.8 |
| 20260506210011 | 78 | 204 | 8.0 | 22.0 | 0.00 | 0.00 | 0.00 | 71 | 1012.8 |
| 20260506205508 | 79 | 182 | 9.0 | 11.0 | 0.00 | 0.00 | 0.00 | 70 | 1012.8 |
| 20260506205004 | 79 | 164 | 11.0 | 17.0 | 0.00 | 0.00 | 0.00 | 70 | 1012.7 |
| 20260506204502 | 79 | 201 | 10.0 | 17.0 | 0.00 | 0.00 | 0.00 | 70 | 1012.9 |
| 20260506203958 | 79 | 183 | 11.0 | 22.0 | 0.00 | 0.00 | 0.00 | 70 | 1012.9 |
| 20260506203456 | 79 | 230 | 4.0 | 16.0 | 0.00 | 0.00 | 0.00 | 70 | 1013.0 |
| 20260506202953 | 79 | 212 | 5.0 | 16.0 | 0.00 | 0.00 | 0.00 | 70 | 1012.9 |
| 20260506202450 | 79 | 219 | 7.0 | 15.0 | 0.00 | 0.00 | 0.00 | 70 | 1012.8 |
| 20260506201940 | 79 | 205 | 12.0 | 17.0 | 0.00 | 0.00 | 0.00 | 71 | 1013.4 |
| 20260506201438 | 79 | 188 | 7.0 | 9.0 | 0.00 | 0.00 | 0.00 | 71 | 1013.0 |
| 20260506200934 | 79 | 218 | 8.0 | 15.0 | 0.00 | 0.00 | 0.00 | 72 | 1013.3 |
| 20260506200431 | 79 | 206 | 5.0 | 11.0 | 0.00 | 0.00 | 0.00 | 71 | 1013.3 |
| 20260506195927 | 79 | 195 | 12.0 | 21.0 | 0.00 | 0.00 | 0.00 | 72 | 1013.3 |
| 20260506195424 | 79 | 223 | 9.0 | 11.0 | 0.00 | 0.00 | 0.00 | 71 | 1013.4 |
| 20260506194921 | 80 | 201 | 12.0 | 17.0 | 0.00 | 0.00 | 0.00 | 71 | 1013.3 |
| 20260506194418 | 80 | 217 | 5.0 | 13.0 | 0.00 | 0.00 | 0.00 | 70 | 1013.5 |
| 20260506193915 | 80 | 185 | 11.0 | 17.0 | 0.00 | 0.00 | 0.00 | 70 | 1013.4 |
| 20260506193412 | 81 | 180 | 10.0 | 17.0 | 0.00 | 0.00 | 0.00 | 70 | 1013.4 |
| 20260506192908 | 81 | 204 | 9.0 | 18.0 | 0.00 | 0.00 | 0.00 | 68 | 1013.3 |
| 20260506192405 | 81 | 190 | 12.0 | 26.0 | 0.00 | 0.00 | 0.00 | 67 | 1013.5 |
| 20260506191902 | 81 | 231 | 6.0 | 11.0 | 0.00 | 0.00 | 0.00 | 68 | 1013.5 |
| 20260506191358 | 81 | 189 | 8.0 | 13.0 | 0.00 | 0.00 | 0.00 | 69 | 1013.6 |
| 20260506190856 | 81 | 146 | 4.0 | 11.0 | 0.00 | 0.00 | 0.00 | 69 | 1013.7 |
| 20260506190352 | 81 | 187 | 9.0 | 15.0 | 0.00 | 0.00 | 0.00 | 69 | 1013.8 |
| 20260506185849 | 81 | 182 | 11.0 | 15.0 | 0.00 | 0.00 | 0.00 | 70 | 1013.9 |
| 20260506185345 | 81 | 232 | 7.0 | 16.0 | 0.00 | 0.00 | 0.00 | 69 | 1014.0 |
| 20260506184837 | 81 | 230 | 6.0 | 14.0 | 0.00 | 0.00 | 0.00 | 70 | 1014.2 |
| 20260506184334 | 81 | 199 | 8.0 | 14.0 | 0.00 | 0.00 | 0.00 | 70 | 1014.1 |
| 20260506183832 | 81 | 223 | 5.0 | 8.0 | 0.00 | 0.00 | 0.00 | 69 | 1014.6 |
| 20260506183327 | 81 | 177 | 3.0 | 13.0 | 0.00 | 0.00 | 0.00 | 70 | 1014.2 |
| 20260506182824 | 81 | 220 | 7.0 | 18.0 | 0.00 | 0.00 | 0.00 | 70 | 1014.3 |
| 20260506182321 | 81 | 223 | 4.0 | 16.0 | 0.00 | 0.00 | 0.00 | 70 | 1014.5 |
| 20260506181819 | 81 | 177 | 7.0 | 10.0 | 0.00 | 0.00 | 0.00 | 70 | 1014.2 |
| 20260506181317 | 81 | 148 | 6.0 | 11.0 | 0.00 | 0.00 | 0.00 | 69 | 1014.4 |
| 20260506180814 | 81 | 206 | 4.0 | 16.0 | 0.00 | 0.00 | 0.00 | 69 | 1014.6 |
| 20260506180309 | 81 | 212 | 13.0 | 20.0 | 0.00 | 0.00 | 0.00 | 69 | 1014.5 |
| 20260506175806 | 81 | 243 | 2.0 | 11.0 | 0.00 | 0.00 | 0.00 | 68 | 1014.7 |
| 20260506175306 | 81 | 214 | 4.0 | 11.0 | 0.00 | 0.00 | 0.00 | 69 | 1014.6 |
| 20260506174800 | 81 | 191 | 4.0 | 11.0 | 0.00 | 0.00 | 0.00 | 69 | 1014.7 |
| 20260506174257 | 81 | 225 | 6.0 | 13.0 | 0.00 | 0.00 | 0.00 | 68 | 1015.1 |
| 20260506173749 | 81 | 219 | 2.0 | 8.0 | 0.00 | 0.00 | 0.00 | 69 | 1015.0 |
| 20260506173246 | 82 | 207 | 8.0 | 9.0 | 0.00 | 0.00 | 0.00 | 69 | 1015.2 |
| 20260506172742 | 82 | 188 | 6.0 | 11.0 | 0.00 | 0.00 | 0.00 | 66 | 1014.8 |
| 20260506172239 | 82 | 199 | 4.0 | 10.0 | 0.00 | 0.00 | 0.00 | 66 | 1015.0 |
| 20260506171737 | 82 | 190 | 2.0 | 8.0 | 0.00 | 0.00 | 0.00 | 68 | 1015.0 |
| 20260506171234 | 82 | 252 | 5.0 | 21.0 | 0.00 | 0.00 | 0.00 | 68 | 1015.1 |
| 20260506170731 | 82 | 195 | 9.0 | 13.0 | 0.00 | 0.00 | 0.00 | 66 | 1015.1 |
| 20260506170228 | 82 | 219 | 6.0 | 9.0 | 0.00 | 0.00 | 0.00 | 66 | 1015.2 |
| 20260506165726 | 82 | 236 | 9.0 | 11.0 | 0.00 | 0.00 | 0.00 | 66 | 1015.4 |
| 20260506165223 | 82 | 177 | 6.0 | 8.0 | 0.00 | 0.00 | 0.00 | 67 | 1015.0 |
| 20260506164720 | 82 | 188 | 6.0 | 9.0 | 0.00 | 0.00 | 0.00 | 66 | 1015.0 |
| 20260506164217 | 82 | 204 | 9.0 | 11.0 | 0.00 | 0.00 | 0.00 | 65 | 1015.1 |
| 20260506163713 | 82 | 210 | 6.0 | 8.0 | 0.00 | 0.00 | 0.00 | 67 | 1015.0 |
| 20260506163208 | 81 | 192 | 9.0 | 20.0 | 0.00 | 0.00 | 0.00 | 66 | 1015.1 |
| 20260506162705 | 81 | 189 | 5.0 | 9.0 | 0.00 | 0.00 | 0.00 | 65 | 1015.2 |
| 20260506162202 | 81 | 187 | 9.0 | 11.0 | 0.00 | 0.00 | 0.00 | 65 | 1015.1 |
| 20260506161659 | 80 | 207 | 2.0 | 8.0 | 0.00 | 0.00 | 0.00 | 66 | 1015.3 |
| 20260506161156 | 80 | 184 | 6.0 | 9.0 | 0.00 | 0.00 | 0.00 | 64 | 1015.6 |
| 20260506160654 | 81 | 184 | 8.0 | 13.0 | 0.00 | 0.00 | 0.00 | 64 | 1015.4 |
| 20260506160150 | 81 | 189 | 15.0 | 25.0 | 0.00 | 0.00 | 0.00 | 63 | 1015.3 |
| 20260506155649 | 81 | 249 | 7.0 | 18.0 | 0.00 | 0.00 | 0.00 | 62 | 1015.6 |
| 20260506155146 | 81 | 189 | 9.0 | 13.0 | 0.00 | 0.00 | 0.00 | 61 | 1015.4 |
| 20260506153248 | 82 | 217 | 9.0 | 17.0 | 0.00 | 0.00 | 0.00 | 58 | 1015.6 |
| 20260506152745 | 82 | 233 | 7.0 | 14.0 | 0.00 | 0.00 | 0.00 | 58 | 1015.6 |
| 20260506152242 | 82 | 182 | 5.0 | 8.0 | 0.00 | 0.00 | 0.00 | 59 | 1015.7 |
| 20260506151741 | 82 | 210 | 5.0 | 10.0 | 0.00 | 0.00 | 0.00 | 59 | 1015.7 |
| 20260506151237 | 81 | 224 | 9.0 | 14.0 | 0.00 | 0.00 | 0.00 | 61 | 1015.8 |
| 20260506150733 | 81 | 303 | 9.0 | 13.0 | 0.00 | 0.00 | 0.00 | 62 | 1015.8 |
| 20260506150231 | 81 | 203 | 2.0 | 11.0 | 0.00 | 0.00 | 0.00 | 61 | 1015.5 |
| 20260506145728 | 81 | 208 | 6.0 | 14.0 | 0.00 | 0.00 | 0.00 | 62 | 1015.4 |
| 20260506145224 | 81 | 203 | 6.0 | 10.0 | 0.00 | 0.00 | 0.00 | 61 | 1015.6 |
| 20260506144722 | 80 | 237 | 5.0 | 10.0 | 0.00 | 0.00 | 0.00 | 66 | 1015.4 |
| 20260506144219 | 80 | 207 | 4.0 | 8.0 | 0.00 | 0.00 | 0.00 | 67 | 1015.2 |
| 20260506143716 | 79 | 213 | 5.0 | 11.0 | 0.00 | 0.00 | 0.00 | 67 | 1015.3 |
| 20260506143214 | 79 | 211 | 7.0 | 13.0 | 0.00 | 0.00 | 0.00 | 70 | 1015.3 |
| 20260506142712 | 79 | 183 | 5.0 | 9.0 | 0.00 | 0.00 | 0.00 | 68 | 1015.3 |
| 20260506142210 | 79 | 182 | 4.0 | 9.0 | 0.00 | 0.00 | 0.00 | 70 | 1015.2 |
| 20260506141707 | 79 | 153 | 8.0 | 10.0 | 0.00 | 0.00 | 0.00 | 69 | 1015.3 |
| 20260506141205 | 79 | 231 | 4.0 | 11.0 | 0.00 | 0.00 | 0.00 | 68 | 1015.3 |
| 20260506140703 | 79 | 211 | 5.0 | 15.0 | 0.00 | 0.00 | 0.00 | 68 | 1015.4 |
| 20260506140159 | 78 | 195 | 6.0 | 15.0 | 0.00 | 0.00 | 0.00 | 69 | 1015.3 |
| 20260506135656 | 78 | 197 | 7.0 | 8.0 | 0.00 | 0.00 | 0.00 | 70 | 1015.2 |
| 20260506135153 | 78 | 203 | 6.0 | 10.0 | 0.00 | 0.00 | 0.00 | 69 | 1015.1 |
| 20260506134649 | 78 | 190 | 3.0 | 7.0 | 0.00 | 0.00 | 0.00 | 69 | 1015.2 |
| 20260506134145 | 78 | 175 | 3.0 | 18.0 | 0.00 | 0.00 | 0.00 | 69 | 1015.2 |
| 20260506133643 | 78 | 198 | 1.0 | 10.0 | 0.00 | 0.00 | 0.00 | 72 | 1015.1 |
| 20260506133140 | 77 | 231 | 9.0 | 11.0 | 0.00 | 0.00 | 0.00 | 71 | 1015.2 |
| 20260506132637 | 77 | 186 | 6.0 | 18.0 | 0.00 | 0.00 | 0.00 | 72 | 1015.1 |
| 20260506132133 | 76 | 222 | 7.0 | 9.0 | 0.00 | 0.00 | 0.00 | 75 | 1015.0 |
| 20260506131631 | 76 | 225 | 5.0 | 9.0 | 0.00 | 0.00 | 0.00 | 74 | 1015.0 |
| 20260506131127 | 75 | 173 | 4.0 | 21.0 | 0.00 | 0.00 | 0.00 | 77 | 1015.1 |
| 20260506130624 | 75 | 182 | 3.0 | 6.0 | 0.00 | 0.00 | 0.00 | 77 | 1015.1 |
| 20260506130122 | 74 | 164 | 7.0 | 14.0 | 0.00 | 0.00 | 0.00 | 79 | 1014.9 |
| 20260506125620 | 74 | 223 | 5.0 | 9.0 | 0.00 | 0.00 | 0.00 | 81 | 1015.0 |
| 20260506125117 | 73 | 184 | 6.0 | 9.0 | 0.00 | 0.00 | 0.00 | 82 | 1015.1 |
| 20260506124615 | 72 | 217 | 7.0 | 10.0 | 0.00 | 0.00 | 0.00 | 85 | 1015.0 |
| 20260506124113 | 71 | 202 | 6.0 | 11.0 | 0.00 | 0.00 | 0.00 | 85 | 1014.8 |
| 20260506123610 | 70 | 142 | 4.0 | 5.0 | 0.00 | 0.00 | 0.00 | 90 | 1014.8 |
| 20260506123109 | 69 | 206 | 2.0 | 8.0 | 0.00 | 0.00 | 0.00 | 93 | 1015.0 |
| 20260506122605 | 68 | 200 | 4.0 | 6.0 | 0.00 | 0.00 | 0.00 | 97 | 1014.8 |
| 20260506122103 | 66 | 186 | 5.0 | 9.0 | 0.00 | 0.00 | 0.00 | 98 | 1014.8 |
| 20260506121600 | 65 | 250 | 1.0 | 3.0 | 0.00 | 0.00 | 0.00 | 97 | 1015.0 |
| 20260506121056 | 64 | 145 | 0.0 | 2.0 | 0.00 | 0.00 | 0.00 | 97 | 1014.9 |
| 20260506120554 | 64 | 182 | 1.0 | 2.0 | 0.00 | 0.00 | 0.00 | 97 | 1015.0 |
| 20260506120051 | 63 | 187 | 1.0 | 3.0 | 0.00 | 0.00 | 0.00 | 97 | 1014.8 |
| 20260506115549 | 62 | 198 | 2.0 | 5.0 | 0.00 | 0.00 | 0.00 | 96 | 1014.8 |
| 20260506115048 | 62 | 151 | 0.0 | 0.0 | 0.00 | 0.00 | 0.00 | 96 | 1014.9 |
| 20260506114545 | 62 | 145 | 0.0 | 0.0 | 0.00 | 0.00 | 0.00 | 96 | 1014.7 |
| 20260506114043 | 61 | 151 | 0.0 | 0.0 | 0.00 | 0.00 | 0.00 | 96 | 1014.7 |
| 20260506113540 | 61 | 156 | 0.0 | 0.0 | 0.00 | 0.00 | 0.00 | 96 | 1014.4 |
| 20260506113038 | 61 | 159 | 0.0 | 0.0 | 0.00 | 0.00 | 0.00 | 96 | 1014.6 |
| 20260506112534 | 61 | 158 | 0.0 | 0.0 | 0.00 | 0.00 | 0.00 | 96 | 1014.6 |
| 20260506112031 | 60 | 158 | 0.0 | 1.0 | 0.00 | 0.00 | 0.00 | 95 | 1014.5 |
| 20260506111529 | 60 | 194 | 0.0 | 0.0 | 0.00 | 0.00 | 0.00 | 95 | 1014.6 |
| 20260506111026 | 60 | 203 | 0.0 | 0.0 | 0.00 | 0.00 | 0.00 | 95 | 1014.4 |
| 20260506110524 | 60 | 205 | 0.0 | 0.0 | 0.00 | 0.00 | 0.00 | 95 | 1014.5 |
| 20260506110021 | 60 | 201 | 0.0 | 1.0 | 0.00 | 0.00 | 0.00 | 95 | 1014.4 |
| 20260506105517 | 60 | 205 | 0.0 | 0.0 | 0.00 | 0.00 | 0.00 | 95 | 1014.4 |
| 20260506105014 | 60 | 205 | 0.0 | 0.0 | 0.00 | 0.00 | 0.00 | 95 | 1014.3 |
| 20260506104512 | 60 | 205 | 0.0 | 0.0 | 0.00 | 0.00 | 0.00 | 95 | 1014.3 |
| 20260506104010 | 60 | 205 | 0.0 | 0.0 | 0.00 | 0.00 | 0.00 | 95 | 1014.3 |
| 20260506103507 | 60 | 206 | 0.0 | 0.0 | 0.00 | 0.00 | 0.00 | 95 | 1014.3 |
| 20260506103004 | 60 | 208 | 0.0 | 0.0 | 0.00 | 0.00 | 0.00 | 95 | 1014.4 |
| 20260506102502 | 60 | 213 | 0.0 | 0.0 | 0.00 | 0.00 | 0.00 | 95 | 1014.2 |
| 20260506101959 | 60 | 206 | 0.0 | 1.0 | 0.00 | 0.00 | 0.00 | 95 | 1014.2 |
| 20260506101455 | 60 | 204 | 0.0 | 0.0 | 0.00 | 0.00 | 0.00 | 95 | 1014.1 |
| 20260506100953 | 60 | 205 | 0.0 | 0.0 | 0.00 | 0.00 | 0.00 | 95 | 1014.2 |
| 20260506100451 | 60 | 205 | 0.0 | 0.0 | 0.00 | 0.00 | 0.00 | 95 | 1014.2 |
| 20260506095949 | 60 | 204 | 0.0 | 0.0 | 0.00 | 0.00 | 0.00 | 95 | 1013.9 |
| 20260506095447 | 60 | 204 | 0.0 | 0.0 | 0.00 | 0.00 | 0.00 | 94 | 1014.2 |
| 20260506094942 | 60 | 204 | 0.0 | 0.0 | 0.00 | 0.00 | 0.00 | 94 | 1014.2 |
| 20260506094441 | 60 | 204 | 0.0 | 0.0 | 0.00 | 0.00 | 0.00 | 94 | 1014.1 |
| 20260506093939 | 60 | 204 | 0.0 | 0.0 | 0.00 | 0.00 | 0.00 | 94 | 1014.2 |
| 20260506093437 | 60 | 218 | 0.0 | 0.0 | 0.00 | 0.00 | 0.00 | 94 | 1014.2 |
| 20260506092934 | 60 | 218 | 0.0 | 0.0 | 0.00 | 0.00 | 0.00 | 94 | 1014.3 |
| 20260506092432 | 60 | 218 | 0.0 | 0.0 | 0.00 | 0.00 | 0.00 | 94 | 1014.2 |
| 20260506091928 | 60 | 218 | 0.0 | 0.0 | 0.00 | 0.00 | 0.00 | 94 | 1014.3 |
| 20260506091427 | 60 | 219 | 0.0 | 0.0 | 0.00 | 0.00 | 0.00 | 94 | 1014.3 |
| 20260506090923 | 60 | 219 | 0.0 | 0.0 | 0.00 | 0.00 | 0.00 | 94 | 1014.2 |
| 20260506090421 | 60 | 219 | 0.0 | 0.0 | 0.00 | 0.00 | 0.00 | 94 | 1014.0 |
| 20260506085917 | 60 | 219 | 0.0 | 0.0 | 0.00 | 0.00 | 0.00 | 94 | 1014.3 |
| 20260506085414 | 60 | 219 | 0.0 | 0.0 | 0.00 | 0.00 | 0.00 | 94 | 1014.3 |
| 20260506084910 | 60 | 219 | 0.0 | 0.0 | 0.00 | 0.00 | 0.00 | 94 | 1014.4 |
| 20260506084408 | 60 | 220 | 0.0 | 0.0 | 0.00 | 0.00 | 0.00 | 94 | 1014.2 |
| 20260506083904 | 60 | 219 | 0.0 | 0.0 | 0.00 | 0.00 | 0.00 | 94 | 1014.4 |
| 20260506083401 | 60 | 218 | 0.0 | 0.0 | 0.00 | 0.00 | 0.00 | 94 | 1014.3 |
| 20260506082858 | 60 | 218 | 0.0 | 0.0 | 0.00 | 0.00 | 0.00 | 94 | 1014.4 |
| 20260506082355 | 60 | 218 | 0.0 | 0.0 | 0.00 | 0.00 | 0.00 | 94 | 1014.3 |
| 20260506081851 | 60 | 218 | 0.0 | 0.0 | 0.00 | 0.00 | 0.00 | 94 | 1014.2 |
| 20260506081349 | 60 | 219 | 0.0 | 0.0 | 0.00 | 0.00 | 0.00 | 94 | 1014.3 |
| 20260506080847 | 60 | 219 | 0.0 | 0.0 | 0.00 | 0.00 | 0.00 | 94 | 1014.3 |
| 20260506080343 | 60 | 219 | 0.0 | 0.0 | 0.00 | 0.00 | 0.00 | 94 | 1014.2 |
| 20260506073327 | 60 | 208 | 0.0 | 0.0 | 0.00 | 0.00 | 0.00 | 93 | 1013.9 |
| 20260506072824 | 60 | 208 | 0.0 | 0.0 | 0.00 | 0.00 | 0.00 | 93 | 1013.8 |
| 20260506072321 | 60 | 208 | 0.0 | 0.0 | 0.00 | 0.00 | 0.00 | 93 | 1014.0 |
| 20260506071819 | 60 | 208 | 0.0 | 0.0 | 0.00 | 0.00 | 0.00 | 93 | 1014.2 |
| 20260506071317 | 60 | 208 | 0.0 | 1.0 | 0.00 | 0.00 | 0.00 | 92 | 1014.1 |
| 20260506070814 | 60 | 213 | 0.0 | 1.0 | 0.00 | 0.00 | 0.00 | 92 | 1013.9 |
| 20260506070310 | 60 | 213 | 0.0 | 0.0 | 0.00 | 0.00 | 0.00 | 92 | 1014.0 |
| 20260506062241 | 60 | 215 | 1.0 | 2.0 | 0.00 | 0.00 | 0.00 | 91 | 1014.3 |
| 20260506061737 | 60 | 219 | 0.0 | 1.0 | 0.00 | 0.00 | 0.00 | 91 | 1014.1 |
| 20260506061236 | 60 | 212 | 1.0 | 2.0 | 0.00 | 0.00 | 0.00 | 91 | 1014.2 |
| 20260506060734 | 60 | 201 | 1.0 | 2.0 | 0.00 | 0.00 | 0.00 | 90 | 1014.1 |
| 20260506060231 | 60 | 196 | 0.0 | 1.0 | 0.00 | 0.00 | 0.00 | 90 | 1014.2 |
| 20260506051203 | 60 | 220 | 0.0 | 0.0 | 0.00 | 0.00 | 0.00 | 88 | 1014.8 |
| 20260506050701 | 60 | 224 | 0.0 | 0.0 | 0.00 | 0.00 | 0.00 | 88 | 1015.1 |
| 20260506050157 | 60 | 224 | 0.0 | 0.0 | 0.00 | 0.00 | 0.00 | 88 | 1015.2 |
| 20260506044649 | 60 | 228 | 0.0 | 0.0 | 0.00 | 0.00 | 0.00 | 87 | 1015.2 |
| 20260506044145 | 60 | 229 | 0.0 | 0.0 | 0.00 | 0.00 | 0.00 | 87 | 1015.5 |
| 20260506043642 | 60 | 229 | 0.0 | 0.0 | 0.00 | 0.00 | 0.00 | 87 | 1015.1 |
| 20260506043140 | 61 | 230 | 0.0 | 1.0 | 0.00 | 0.00 | 0.00 | 86 | 1015.1 |
| 20260506042639 | 61 | 227 | 0.0 | 0.0 | 0.00 | 0.00 | 0.00 | 86 | 1015.3 |
| 20260506042137 | 61 | 227 | 0.0 | 0.0 | 0.00 | 0.00 | 0.00 | 86 | 1015.3 |
| 20260506041635 | 61 | 226 | 0.0 | 0.0 | 0.00 | 0.00 | 0.00 | 86 | 1015.3 |
| 20260506041131 | 61 | 226 | 0.0 | 0.0 | 0.00 | 0.00 | 0.00 | 85 | 1015.1 |
| 20260506040629 | 61 | 226 | 0.0 | 0.0 | 0.00 | 0.00 | 0.00 | 85 | 1015.3 |
| 20260506040126 | 61 | 234 | 0.0 | 0.0 | 0.00 | 0.00 | 0.00 | 85 | 1015.4 |
| 20260506035623 | 61 | 237 | 0.0 | 0.0 | 0.00 | 0.00 | 0.00 | 85 | 1015.3 |
| 20260506035119 | 62 | 251 | 0.0 | 1.0 | 0.00 | 0.00 | 0.00 | 85 | 1015.3 |
| 20260506034617 | 62 | 262 | 1.0 | 1.0 | 0.00 | 0.00 | 0.00 | 85 | 1015.3 |
| 20260506034114 | 62 | 199 | 0.0 | 0.0 | 0.00 | 0.00 | 0.00 | 84 | 1014.9 |
| 20260506033611 | 62 | 208 | 0.0 | 0.0 | 0.00 | 0.00 | 0.00 | 84 | 1015.0 |
| 20260506033108 | 62 | 208 | 0.0 | 0.0 | 0.00 | 0.00 | 0.00 | 84 | 1015.1 |
| 20260506032605 | 62 | 197 | 0.0 | 1.0 | 0.00 | 0.00 | 0.00 | 84 | 1015.0 |
| 20260506032102 | 62 | 204 | 2.0 | 2.0 | 0.00 | 0.00 | 0.00 | 84 | 1015.2 |
| 20260506031559 | 62 | 203 | 1.0 | 2.0 | 0.00 | 0.00 | 0.00 | 84 | 1015.1 |
| 20260506031056 | 62 | 199 | 1.0 | 1.0 | 0.00 | 0.00 | 0.00 | 84 | 1015.0 |
| 20260506030555 | 62 | 195 | 0.0 | 1.0 | 0.00 | 0.00 | 0.00 | 84 | 1015.3 |
| 20260506030051 | 62 | 196 | 1.0 | 1.0 | 0.00 | 0.00 | 0.00 | 83 | 1015.3 |
| 20260506025548 | 62 | 195 | 1.0 | 1.0 | 0.00 | 0.00 | 0.00 | 83 | 1015.3 |
| 20260506025044 | 62 | 195 | 0.0 | 0.0 | 0.00 | 0.00 | 0.00 | 82 | 1015.6 |
| 20260506024541 | 62 | 195 | 0.0 | 0.0 | 0.00 | 0.00 | 0.00 | 82 | 1015.8 |
| 20260506024038 | 62 | 196 | 0.0 | 0.0 | 0.00 | 0.00 | 0.00 | 82 | 1015.6 |
| 20260506023534 | 62 | 195 | 0.0 | 0.0 | 0.00 | 0.00 | 0.00 | 81 | 1015.8 |
| 20260506023032 | 63 | 195 | 0.0 | 1.0 | 0.00 | 0.00 | 0.00 | 81 | 1015.7 |
| 20260506022529 | 63 | 195 | 0.0 | 0.0 | 0.00 | 0.00 | 0.00 | 80 | 1015.8 |
| 20260506022026 | 63 | 195 | 0.0 | 0.0 | 0.00 | 0.00 | 0.00 | 80 | 1015.7 |
| 20260506021524 | 63 | 195 | 0.0 | 1.0 | 0.00 | 0.00 | 0.00 | 80 | 1015.5 |
| 20260506021021 | 64 | 195 | 0.0 | 0.0 | 0.00 | 0.00 | 0.00 | 79 | 1015.6 |
| 20260506020518 | 64 | 195 | 0.0 | 0.0 | 0.00 | 0.00 | 0.00 | 79 | 1015.4 |
| 20260506020016 | 64 | 195 | 0.0 | 0.0 | 0.00 | 0.00 | 0.00 | 79 | 1015.6 |
| 20260506015513 | 64 | 194 | 0.0 | 0.0 | 0.00 | 0.00 | 0.00 | 78 | 1015.4 |
| 20260506015010 | 65 | 193 | 0.0 | 1.0 | 0.00 | 0.00 | 0.00 | 78 | 1015.1 |
| 20260506014507 | 65 | 193 | 0.0 | 1.0 | 0.00 | 0.00 | 0.00 | 77 | 1015.1 |
| 20260506014003 | 65 | 193 | 0.0 | 1.0 | 0.00 | 0.00 | 0.00 | 77 | 1015.2 |
| 20260506013501 | 65 | 193 | 0.0 | 1.0 | 0.00 | 0.00 | 0.00 | 76 | 1015.2 |
| 20260506012957 | 66 | 193 | 0.0 | 1.0 | 0.00 | 0.00 | 0.00 | 76 | 1015.1 |
| 20260506012453 | 66 | 202 | 1.0 | 1.0 | 0.00 | 0.00 | 0.00 | 75 | 1015.0 |
| 20260506011951 | 66 | 211 | 1.0 | 1.0 | 0.00 | 0.00 | 0.00 | 75 | 1015.2 |
| 20260506011448 | 66 | 213 | 0.0 | 0.0 | 0.00 | 0.00 | 0.00 | 74 | 1015.3 |
| 20260506010944 | 67 | 213 | 1.0 | 1.0 | 0.00 | 0.00 | 0.00 | 74 | 1015.5 |
| 20260506010444 | 67 | 189 | 0.0 | 1.0 | 0.00 | 0.00 | 0.00 | 73 | 1015.1 |
| 20260506005939 | 67 | 189 | 1.0 | 1.0 | 0.00 | 0.00 | 0.00 | 73 | 1015.0 |
| 20260506005437 | 68 | 187 | 1.0 | 1.0 | 0.00 | 0.00 | 0.00 | 72 | 1015.0 |
| 20260506004932 | 68 | 210 | 1.0 | 3.0 | 0.00 | 0.00 | 0.00 | 72 | 1015.1 |
| 20260506004431 | 68 | 202 | 1.0 | 3.0 | 0.00 | 0.00 | 0.00 | 71 | 1015.1 |
| 20260506003926 | 68 | 197 | 1.0 | 1.0 | 0.00 | 0.00 | 0.00 | 71 | 1015.2 |
| 20260506003423 | 68 | 199 | 1.0 | 2.0 | 0.00 | 0.00 | 0.00 | 71 | 1014.9 |
| 20260506002919 | 69 | 194 | 2.0 | 2.0 | 0.00 | 0.00 | 0.00 | 70 | 1015.0 |
| 20260506002415 | 69 | 194 | 2.0 | 3.0 | 0.00 | 0.00 | 0.00 | 70 | 1015.3 |
| 20260506001911 | 69 | 186 | 1.0 | 3.0 | 0.00 | 0.00 | 0.00 | 69 | 1015.1 |
| 20260506001408 | 69 | 193 | 3.0 | 5.0 | 0.00 | 0.00 | 0.00 | 69 | 1015.2 |
| 20260506000906 | 70 | 208 | 3.0 | 3.0 | 0.00 | 0.00 | 0.00 | 69 | 1015.1 |
| 20260506000403 | 70 | 199 | 2.0 | 5.0 | 0.00 | 0.00 | 0.00 | 68 | 1015.3 |
| 20260505235859 | 70 | 194 | 2.0 | 5.0 | 0.00 | 0.00 | 0.00 | 68 | 1015.1 |
| 20260505235358 | 70 | 194 | 5.0 | 11.0 | 0.00 | 0.00 | 0.00 | 68 | 1015.2 |
| 20260505234854 | 70 | 192 | 6.0 | 8.0 | 0.00 | 0.00 | 0.00 | 67 | 1014.8 |
| 20260505234352 | 70 | 199 | 5.0 | 6.0 | 0.00 | 0.00 | 0.00 | 67 | 1015.0 |
| 20260505233848 | 71 | 176 | 3.0 | 5.0 | 0.00 | 0.00 | 0.00 | 67 | 1014.9 |
| 20260505233346 | 71 | 204 | 4.0 | 9.0 | 0.00 | 0.00 | 0.00 | 66 | 1015.2 |
| 20260505232844 | 71 | 192 | 4.0 | 9.0 | 0.00 | 0.00 | 0.00 | 66 | 1015.1 |
| 20260505232342 | 71 | 220 | 7.0 | 11.0 | 0.00 | 0.00 | 0.00 | 66 | 1015.1 |
| 20260505231838 | 71 | 211 | 7.0 | 9.0 | 0.00 | 0.00 | 0.00 | 66 | 1014.9 |
| 20260505231335 | 71 | 188 | 6.0 | 7.0 | 0.00 | 0.00 | 0.00 | 65 | 1015.1 |